Location: ????????
(55.0559°N, 39.1270°E)
Time: 08:17:33
(UTC+00:00)

Cosmos 2322 Rocket - Pass Details

Date: 15 November 2025
Orbit: 830 x 851 km, 71.0° (Epoch: 14 December)

Event Time Altitude Azimuth Distance (km) Brightness Sun altitude
Exits shadow 02:16:10 21° 334° (NNW) 1,814 3.7 -22.5°
Maximum altitude 02:16:21 21° 337° (NNW) 1,813 3.7 -22.4°
Drops below altitude 10° 02:20:40 10° 26° (NNE) 2,490 4.9 -21.8°
Sets 02:23:45 0° 42° (NE) 3,430 5.9 -21.4°
